Change the Weather History Date:

Sunday, December 16, 2012

  Actual Average Record
Temperature  
Mean Temperature 23 °F 20 °F  
Max Temperature 27 °F 29 °F 65 °F (1939)
Min Temperature 18 °F 12 °F -24 °F (1901)
Degree Days  
Heating Degree Days 42 45  
Month to date heating degree days 541 680  
Since 1 July heating degree days 2067 2248  
Cooling Degree Days 0 0  
Month to date cooling degree days 0 0  
Year to date cooling degree days 1236 824  
Moisture  
Dew Point 21 °F    
Average Humidity 90    
Maximum Humidity 96    
Minimum Humidity 84    
Precipitation  
Precipitation 0.00 in 0.01 in 0.53 in (1915)
Month to date precipitation 0.69 0.28  
Year to date precipitation 21.85 21.35  
Snow  
Snow 0.00 in - 6.00 in (1915)
Month to date snowfall 3.5  
Since 1 July snowfall 4.2  
Snow Depth 1.00 in    
Sea Level Pressure  
Sea Level Pressure 29.84 in    
Wind  
Wind Speed 7 mph (North)    
Max Wind Speed 14 mph    
Max Gust Speed 18 mph    
Visibility 7 miles    
Events      
T = Trace of Precipitation, MM = Missing Value Source: NWS Daily Summary

Daily Weather History Graph

Daily Weather History Graph

Search for Another Location

Airport or City:

Trip Planner

Search our weather history database for the weather conditions in past years. The results will help you decide how hot, cold, wet, or windy it might be!

Date:

Astronomy

Dec. 16, 2012 Rise Set
Actual Time 8:00 AM CST 4:55 PM CST
Civil Twilight 7:27 AM CST 5:28 PM CST
Nautical Twilight 6:50 AM CST 6:05 PM CST
Astronomical Twilight 6:15 AM CST 6:40 PM CST
Moon 10:28 AM CST (12/16) 9:18 PM CST (12/16)
Length of Visible Light 10h 01m
Length of Day
8h 55m
Waxing Crescent, 16% of the Moon is Illuminated
Dec 16
Waxing Crescent
Dec 19
First Quarter
Dec 28
Full
Jan 4
Last Quarter
Jan 11
New

Hourly Weather History & Observations

Time (CST) Temp. Windchill Dew Point Humidity Pressure Visibility Wind Dir Wind Speed Gust Speed Precip Events Conditions
12:53 AM 19.9 °F 7.9 °F 16.0 °F 85% 29.81 in 10.0 mi NNW 11.5 mph - N/A   Clear
1:53 AM 19.9 °F 8.6 °F 16.0 °F 85% 29.83 in 10.0 mi NNW 10.4 mph - N/A   Clear
2:53 AM 19.9 °F 7.3 °F 16.0 °F 85% 29.84 in 10.0 mi NNW 12.7 mph - N/A   Clear
3:44 AM 19.4 °F 6.6 °F 15.8 °F 86% 29.79 in 9.0 mi North 12.7 mph - N/A   Mostly Cloudy
3:53 AM 19.9 °F 9.3 °F 16.0 °F 85% 29.84 in 8.0 mi North 9.2 mph - N/A   Overcast
5:05 AM 19.4 °F 9.5 °F 17.6 °F 93% 29.80 in 5.0 mi North 8.1 mph - N/A   Overcast
5:53 AM 19.9 °F 9.3 °F 18.0 °F 92% 29.86 in 6.0 mi NNW 9.2 mph - N/A   Overcast
6:53 AM 21.0 °F 9.3 °F 19.0 °F 92% 29.86 in 3.0 mi North 11.5 mph - N/A   Overcast
7:05 AM 21.2 °F 10.1 °F 19.4 °F 93% 29.81 in 2.5 mi North 10.4 mph - N/A   Overcast
7:53 AM 21.9 °F 11.0 °F 19.9 °F 92% 29.88 in 2.5 mi North 10.4 mph - N/A   Overcast
8:00 AM 21.2 °F 11.7 °F 19.4 °F 93% 29.82 in 3.0 mi North 8.1 mph - N/A   Overcast
8:11 AM 23.0 °F 13.9 °F 21.2 °F 93% 29.82 in 2.5 mi NNW 8.1 mph - N/A   Overcast
8:26 AM 23.0 °F 13.9 °F 21.2 °F 93% 29.82 in 1.2 mi North 8.1 mph - N/A   Overcast
8:49 AM 23.0 °F 14.7 °F 21.2 °F 93% 29.82 in 2.0 mi North 6.9 mph - N/A   Overcast
8:53 AM 23.0 °F 13.9 °F 21.0 °F 92% 29.88 in 2.0 mi NNW 8.1 mph - N/A   Overcast
9:13 AM 24.8 °F 15.3 °F 21.2 °F 86% 29.82 in 4.0 mi North 9.2 mph - N/A   Overcast
9:53 AM 24.1 °F 15.2 °F 21.9 °F 91% 29.89 in 3.0 mi NNW 8.1 mph - N/A   Overcast
10:36 AM 24.8 °F 16.9 °F 21.2 °F 86% 29.83 in 4.0 mi North 6.9 mph - N/A   Overcast
10:53 AM 25.0 °F 18.1 °F 23.0 °F 92% 29.89 in 3.0 mi North 5.8 mph - N/A   Overcast
11:53 AM 25.0 °F 19.3 °F 23.0 °F 92% 29.87 in 10.0 mi North 4.6 mph - N/A   Overcast
12:53 PM 26.1 °F 20.5 °F 23.0 °F 88% 29.84 in 8.0 mi North 4.6 mph - N/A   Overcast
1:53 PM 26.1 °F 21.9 °F 24.1 °F 92% 29.83 in 8.0 mi North 3.5 mph - N/A   Overcast
2:22 PM 26.6 °F - 24.8 °F 93% 29.78 in 10.0 mi Calm Calm - N/A   Overcast
2:53 PM 26.1 °F 20.5 °F 24.1 °F 92% 29.82 in 8.0 mi NNE 4.6 mph - N/A   Overcast
3:53 PM 26.1 °F 20.5 °F 24.1 °F 92% 29.83 in 10.0 mi North 4.6 mph - N/A   Overcast
4:53 PM 26.1 °F 20.5 °F 23.0 °F 88% 29.83 in 10.0 mi NE 4.6 mph - N/A   Overcast
5:53 PM 25.0 °F 19.3 °F 23.0 °F 92% 29.84 in 9.0 mi ENE 4.6 mph - N/A   Overcast
6:53 PM 25.0 °F 20.7 °F 23.0 °F 92% 29.84 in 10.0 mi ENE 3.5 mph - N/A   Overcast
7:53 PM 26.1 °F 21.9 °F 23.0 °F 88% 29.85 in 10.0 mi ENE 3.5 mph - N/A   Overcast
8:53 PM 26.1 °F - 23.0 °F 88% 29.84 in 10.0 mi Calm Calm - N/A   Overcast
9:53 PM 27.0 °F - 24.1 °F 89% 29.84 in 10.0 mi Calm Calm - N/A   Overcast
10:53 PM 26.1 °F 20.5 °F 24.1 °F 92% 29.83 in 10.0 mi ENE 4.6 mph - N/A   Overcast
11:53 PM 27.0 °F 20.5 °F 25.0 °F 92% 29.82 in 9.0 mi East 5.8 mph - N/A   Overcast